TimeEST,TemperatureF,Dew PointF,Humidity,Sea Level PressureIn,VisibilityMPH,Wind Direction,Wind SpeedMPH,Gust SpeedMPH,PrecipitationIn,Events,Conditions,WindDirDegrees,DateUTC
12:53 AM,34.0,27.0,75,30.06,10.0,WSW,8.1,-,N/A,,Clear,250,2013-02-12 05:53:00
1:53 AM,34.0,27.0,75,30.08,10.0,WSW,6.9,-,N/A,,Clear,250,2013-02-12 06:53:00
2:53 AM,33.1,26.1,75,30.09,10.0,West,8.1,-,N/A,,Clear,270,2013-02-12 07:53:00
3:53 AM,32.0,25.0,75,30.09,10.0,WNW,11.5,-,N/A,,Clear,290,2013-02-12 08:53:00
4:53 AM,30.9,25.0,79,30.10,10.0,West,4.6,-,N/A,,Scattered Clouds,280,2013-02-12 09:53:00
5:53 AM,30.0,24.1,79,30.11,10.0,West,8.1,-,N/A,,Clear,280,2013-02-12 10:53:00
6:53 AM,28.9,23.0,78,30.12,9.0,WNW,4.6,-,N/A,,Clear,290,2013-02-12 11:53:00
7:53 AM,28.0,23.0,81,30.13,6.0,WSW,3.5,-,N/A,,Haze,240,2013-02-12 12:53:00
8:53 AM,30.0,25.0,82,30.14,6.0,West,4.6,-,N/A,,Haze,260,2013-02-12 13:53:00
9:53 AM,32.0,25.0,75,30.13,9.0,WNW,4.6,-,N/A,,Partly Cloudy,290,2013-02-12 14:53:00
10:53 AM,34.0,26.1,73,30.13,10.0,WSW,5.8,-,N/A,,Clear,240,2013-02-12 15:53:00
11:53 AM,36.0,26.1,67,30.10,10.0,WSW,4.6,-,N/A,,Clear,240,2013-02-12 16:53:00
12:53 PM,39.0,27.0,62,30.03,10.0,Calm,Calm,-,N/A,,Clear,0,2013-02-12 17:53:00
1:53 PM,43.0,28.0,56,30.05,10.0,SW,9.2,-,N/A,,Clear,230,2013-02-12 18:53:00
2:53 PM,45.0,28.0,52,30.02,10.0,West,8.1,-,N/A,,Clear,260,2013-02-12 19:53:00
3:53 PM,46.9,27.0,46,30.01,10.0,WSW,9.2,-,N/A,,Clear,250,2013-02-12 20:53:00
4:53 PM,46.9,28.0,48,29.99,10.0,SSW,3.5,-,N/A,,Clear,210,2013-02-12 21:53:00
5:53 PM,44.1,28.0,53,29.97,10.0,WNW,8.1,-,N/A,,Clear,300,2013-02-12 22:53:00
6:53 PM,41.0,26.1,55,29.96,10.0,WNW,8.1,-,N/A,,Clear,300,2013-02-12 23:53:00
7:53 PM,39.0,26.1,60,29.97,10.0,WNW,4.6,-,N/A,,Clear,290,2013-02-13 00:53:00
8:53 PM,36.0,26.1,67,29.95,10.0,WNW,4.6,-,N/A,,Clear,300,2013-02-13 01:53:00
9:53 PM,33.1,27.0,78,29.95,10.0,NNW,6.9,-,N/A,,Clear,330,2013-02-13 02:53:00
10:53 PM,34.0,28.0,79,29.94,8.0,North,6.9,-,N/A,,Clear,350,2013-02-13 03:53:00
11:53 PM,32.0,27.0,82,29.93,7.0,North,8.1,-,N/A,,Clear,360,2013-02-13 04:53:00